"Pseudo-MPEC" for EJA002

Created 2016 Jun 7 1:07:16 UT using Find_Orb

Astrometry:
     EJA002   C2004 12 06.05863 02 30 44.95 +07 18 39.1          20.9        924
     EJA002   C2004 12 06.05878 02 30 58.78 +07 19 50.9          18.6        924
     EJA002   C2004 12 06.06112 02 33 33.30 +07 33 21.8          17.3        924
     EJA002   C2004 12 06.06622 02 39 11.09 +08 02 33.9          16.9        924
     EJA002   C2004 12 06.06650 02 39 32.10 +08 04 22.1          18.2        924
     EJA002   C2004 12 06.06808 02 41 15.50 +08 13 10.4          17.6        924
     EJA002   C2004 12 06.06826 02 41 28.54 +08 14 16.4          19.0        924
     EJA002   C2004 12 06.06981 02 43 10.74 +08 22 52.9          15.7        924
     EJA002   C2004 12 06.07086 02 44 21.48 +08 28 49.0          17.7        924
     EJA002   C2004 12 06.07120 02 44 43.21 +08 30 39.8          17.7        924
     EJA002   C2004 12 06.07134 02 44 54.30 +08 31 34.6          17.6        924
     EJA002   C2004 12 06.07169 02 45 16.84 +08 33 26.5          17.7        924
     EJA002   C2004 12 06.07185 02 45 28.08 +08 34 21.7          19.8        924
     EJA002   C2004 12 06.07271 02 46 24.35 +08 39 05.4          17.9        924
     EJA002   C2004 12 06.07285 02 46 34.71 +08 39 57.4          16.0        924
     EJA002   C2004 12 06.07319 02 46 56.36 +08 41 42.8          18.1        924
     EJA002   C2004 12 06.07334 02 47 07.86 +08 42 39.8          17.1        924
     EJA002   C2004 12 06.07369 02 47 30.19 +08 44 30.2          16.5        924
     EJA002   C2004 12 06.07428 02 48 09.38 +08 47 44.3          17.4        924
     EJA002   C2004 12 06.07442 02 48 19.89 +08 48 34.8          17.0        924
     EJA002   C2004 12 06.07477 02 48 42.15 +08 50 25.6          15.8        924
     EJA002   C2004 12 06.07527 02 48 52.88 +08 51 18.5         x17.4  x     924
     EJA002   C2004 12 06.07551 02 49 32.56 +08 54 34.3          17.5        924
     EJA002   C2004 12 06.07601 02 50 05.33 +08 57 14.3          17.0        924
     EJA002   C2004 12 06.07700 02 51 11.66 +09 02 39.6          15.6        924
     EJA002   C2004 12 06.07715 02 51 21.86 +09 03 29.2          18.0        924
     EJA002   C2004 12 06.07750 02 51 44.18 +09 05 18.4          16.9        924
     EJA002   C2004 12 06.07764 02 51 54.99 +09 06 06.6          13.6        924
     EJA002   C2004 12 06.07850 02 52 50.73 +09 10 43.6          19.6        924
     EJA002   C2004 12 06.07863 02 53 01.35 +09 11 31.1          18.1        924
     EJA002   C2004 12 06.07898 02 53 23.47 +09 13 19.4          16.1        924
     EJA002   C2004 12 06.07912 02 53 34.19 +09 14 09.3          18.3        924
     EJA002   C2004 12 06.07998 02 54 30.53 +09 18 41.9          17.3        924
     EJA002   C2004 12 06.08013 02 54 41.01 +09 19 32.3          17.0        924
     EJA002   C2004 12 06.08047 02 55 02.28 +09 21 14.7          18.1        924
     EJA002   C2004 12 06.08063 02 55 14.55 +09 22 13.5          16.5        924
     EJA002   C2004 12 06.08148 02 56 10.32 +09 26 41.1          17.6        924
     EJA002   C2004 12 06.08163 02 56 21.40 +09 27 31.7          14.0        924
     EJA002   C2004 12 06.08198 02 56 43.86 +09 29 17.9          15.8        924
     EJA002   C2004 12 06.08213 02 56 55.17 +09 30 12.8          17.2        924
     EJA002   C2004 12 06.08310 02 57 59.23 +09 35 13.6          18.6        924
     EJA002   C2004 12 06.08325 02 58 10.23 +09 36 08.3          17.3        924
     EJA002   C2004 12 06.08360 02 58 32.64 +09 37 54.0          15.7        924
     EJA002   C2004 12 06.08375 02 58 42.64 +09 38 45.3                      924
     EJA002   C2004 12 06.08461 02 59 40.10 +09 43 13.4          15.7        924
     EJA002   C2004 12 06.08476 02 59 50.82 +09 44 02.2          17.7        924
     EJA002   C2004 12 06.08524 03 00 23.34 +09 46 34.1          16.9        924
     EJA002   C2004 12 06.08559 03 00 46.15 +09 48 20.1          16.6        924
     EJA002   C2004 12 06.08628 03 01 33.15 +09 51 58.8          16.5        924
     EJA002   C2004 12 06.08663 03 01 55.84 +09 53 45.4          14.3        924
     EJA002   C2004 12 06.08678 03 02 06.25 +09 54 30.9          17.0        924
     EJA002   C2004 12 06.08745 03 02 51.56 +09 58 02.3          17.2        924
     EJA002   C2004 12 06.08780 03 03 13.38 +09 59 43.3          17.6        924
     EJA002   C2004 12 06.08795 03 03 24.48 +10 00 35.1          15.7        924
     EJA002   C2004 12 06.08830 03 03 46.81 +10 02 17.8          16.2        924
     EJA002   C2004 12 06.08844 03 03 57.74 +10 03 09.1          18.6        924
     EJA002   C2004 12 06.08933 03 04 55.98 +10 07 35.8          16.8        924
     EJA002   C2004 12 06.08947 03 05 07.00 +10 08 25.0          17.7        924
     EJA002   C2004 12 06.08981 03 05 29.55 +10 10 08.4          19.7        924
     EJA002   C2004 12 06.08997 03 05 40.14 +10 10 56.0          16.3        924
     EJA002   C2004 12 06.09063 03 06 24.07 +10 14 16.2          15.7        924
     EJA002   C2004 12 06.09097 03 06 46.29 +10 15 59.5          17.0        924
     EJA002   C2004 12 06.09112 03 06 57.66 +10 16 48.7          17.7        924
     EJA002   C2004 12 06.09215 03 08 05.58 +10 21 56.1          18.6        924
     EJA002   C2004 12 06.09265 03 08 39.08 +10 24 24.1          17.8        924
     EJA002   C2004 12 06.09279 03 08 49.76 +10 25 12.9          16.6        924
     EJA002   C2004 12 06.09333 03 09 26.26 +10 27 56.9          16.9        924
     EJA002   C2004 12 06.09383 03 09 59.70 +10 30 27.0          16.6        924
     EJA002   C2004 12 06.09449 03 11 06.03 +10 35 22.1         x16.7  x     924
     EJA002   C2004 12 06.09499 03 11 17.26 +10 36 12.5          18.3        924
     EJA002   C2004 12 06.09534 03 11 39.80 +10 37 50.5          17.3        924
     EJA002   C2004 12 06.09550 03 11 51.18 +10 38 40.7          15.0        924
     EJA002   C2004 12 06.09603 03 12 27.26 +10 41 20.7          17.2        924
     EJA002   C2004 12 06.09653 03 13 00.82 +10 43 48.2          18.4        924
     EJA002   C2004 12 06.09688 03 13 23.30 +10 45 26.7          16.4        924

Station data:
(924) Observatoire du Cegep de Trois-Rivieres (N46.4757 W72.3231)  Canada/Quebec.

Orbital elements:  EJA002
   Perigee 2004 Dec 5.646658 +/- 0.00583 TT = 15:31:11 (JD 2453345.146658)
Epoch 2004 Dec  6.0 TT = JDT 2453345.5                        Find_Orb
M 129.88804 +/- 2.1                 (J2000 equatorial)
n 367.59915462 +/- 1.68             Peri.  238.48946 +/- 1.3
a 41656.9213 +/- 127                Node     1.86238 +/- 0.43
e   0.1302009 +/- 0.00251           Incl.   20.98654 +/- 0.011
P1410.21m/0.979d           H 34.1   G  0.15   U 13.1  
q 36233.1515 +/- 207    Q 47080.6910 +/- 75
73 of 75 observations 2004 Dec. 6 (55.1 min); mean residual 7".639
Residuals in arcseconds: 
041206 924 27.0- 7.70-    041206 924 4.92+ 1.90+    041206 924 5.06+ .722-    
041206 924 30.2+ 11.3+    041206 924 10.9- 2.74-    041206 924 10.9+ 2.78+    
041206 924 11.3+ 1.85+    041206 924 10.7+ .025-    041206 924 13.4- 4.54-    
041206 924 17.5- 6.94-    041206 924 15.0- 1.78-    041206 924 2.03+ .894+    
041206 924 17.4+ 5.66+    041206 924 13.6+ 3.68+    041206 924 14.8- 4.46-    
041206 924 11.0- 3.34-    041206 924 5.30- 1.08-    041206 924 7.96+ 3.68+    
041206 924 4.40+ 1.68+    041206 924 14.8+ 3.65+    041206 924 13.6- 3.32-    
041206 924 12.7- 4.99-    041206 924 2.32- .586-    041206 924 10.4+ 2.94+    
041206 924 2.19- 1.30-    041206 924 4.33+ 1.64+    041206 924 6.56+ 2.18+    
041206 924 16.3- 4.27-    041206 924 17.4- 5.01-    041206 924 4.40+ .825+    
041206 924 9.68+ 3.73+    041206 924 5.83+ 2.52+    041206 924 1.00- .479-    
041206 924 2.34- 1.23-    041206 924 10.3- 1.55-    041206 924 9.90- .717-    
041206 924 6.04+ .608+    041206 924 5.19+ 1.22+    041206 924 9.28+ 2.86+    
041206 924 10.5- 1.87-    041206 924 8.99- 4.04-    041206 924 9.09- 2.04-    
041206 924 4.58+ 3.64+    041206 924 9.85+ 3.15+    041206 924 10.4- 5.04-    
041206 924 10.9- 3.73-    041206 924 2.85- 3.77-    041206 924 8.45+ 1.55+    
041206 924 11.2+ 3.58+    041206 924 11.3+ 3.47+    041206 924 11.7+ 3.04+    
041206 924 4.09- 1.85-    041206 924 3.75- 1.42-    041206 924 9.26+ 3.08+    
041206 924 6.99- 2.60-    041206 924 4.38- 2.54+    041206 924( 333+  101+)   
041206 924 10.3+ 1.74+    041206 924 6.25- .117-    041206 924 2.99+ 1.97+    
041206 924 6.17- 2.73-    041206 924 3.71+ 1.58+    041206 924 11.7- 4.19-    
041206 924( 342-  114-)   041206 924 9.17+ 2.96+    041206 924 2.60- 1.54-    
041206 924 8.59+ 2.87+    041206 924 .243- .560-    041206 924 3.71+ 1.24+    
041206 924 .649- .935-    041206 924 11.1+ 2.78+    041206 924 2.50+ .832+    
041206 924 2.28+ 1.14+    041206 924 .208- .417+    041206 924 13.3- 3.96-    

Ephemerides (geocentric):
Date (UTC) HH   RA              Dec         delta   r     elong  mag " sig PA
---- -- -- --  ------------   ------------  ------ ------ -----  --- ---- ---
2004 12 07 00  01 42 13.934   +08 46 04.51   45954 .98537 131.7 18.4  564  73
2004 12 07 01  02 29 47.503   +12 35 12.95   46619 .98542 143.9 18.0  472  74
2004 12 07 02  03 17 34.439   +15 48 07.21   46997 .98545 155.8 17.7  471  75
2004 12 07 03  04 06 14.607   +18 19 34.13   47074 .98546 167.6 17.3  556  77
2004 12 07 04  04 56 16.551   +20 03 55.02   46848 .98546 177.4 Sha   725  81
2004 12 07 05  05 47 57.389   +20 55 00.92   46327 .98545 167.9 17.3  978  85
2004 12 07 06  06 41 23.506   +20 46 29.93   45528 .98541 155.6 17.7 1316  90
2004 12 07 07  07 36 33.462   +19 32 24.78   44479 .98537 142.7 18.0 1742  95
2004 12 07 08  08 33 23.917   +17 08 09.52   43224 .98531 129.1 18.3 2255 100
2004 12 07 09  09 31 58.094   +13 31 47.56   41826 .98524 114.6 18.7 2848 105
2004 12 07 10  10 32 34.789   +08 45 53.11   40367 .98516  99.0 19.1 3502 108
2004 12 07 11  11 35 54.959   +03 00 17.08   38956 .98508  82.3 19.7 4172 110
